ONEWEB-0053 (45157 NORAD) Tracking and Keplerian Element Data

This shows tracking and keplerian element data for the satellite.

Feedback or suggestion? Click here.




ElementValue
Catalog45157
NameONEWEB-0053
Epoch Orbit3803
Epoch Day293.91673611
Epoch Year2020
RAAN87.1388
Inclination87.9172
Eccentricity0.0021442
Argument of Perigee157.5021
Mean Anonmoly308.5686
Mean Motion13.39397825
Decay Rate1.4E-07
L11 45157U 20008AC 20293.91673611 .00000014 00000-0 00000-0 0 9997
L22 45157 87.9172 87.1388 0021442 157.5021 308.5686 13.39397825 38037

Live tracking and technical data element details for ONEWEB-0053 (NORAD 45157). ONEWEB-0053 can be tracked NOW for your location showing map with azimuth and elevation plus other details from your city location.

Track the satellite on the map from your city or location and see movement details for azimuth, elevation, latitude, longitude, range, height, and movement on the map or in text.







IsCatalogInMostPopularTable: catalog: 45157, numindb: 53
Update: records affected: 1



GetName: 45157 ONEWEB-0053

Hit Count: updated at: Tue, 20 Oct 2020 12:28:06 GMT